Location: Bear Branch Nature Center
(39.6445°N, 76.9901°W)
Time: 06:27:27
(UTC-04:00)

Tiangong 2 - Visible Passes

Search period start: 21 May 2019 00:00
Search period end: 31 May 2019 00:00
Orbit: 379 x 387 km, 42.8° (Epoch: 21 May)

Date Brightness Start Highest point End Pass type
(mag) Time Alt. Az. Time Alt. Az. Time Alt. Az.
21 May 1.5 22:08:05 10° W 22:11:11 59° NNW 22:12:42 26° ENE visible
22 May 1.1 21:08:00 10° WSW 21:11:07 84° NNW 21:14:15 10° ENE visible
22 May 2.1 22:45:00 10° WNW 22:47:55 44° N 22:47:55 44° N visible
23 May 2.0 21:44:51 10° W 21:47:54 48° N 21:50:44 11° ENE visible
23 May 3.6 23:21:46 10° WNW 23:22:55 20° WNW 23:22:55 20° WNW visible
24 May 2.0 22:21:42 10° WNW 22:24:45 46° N 22:25:36 35° NE visible
25 May 2.1 21:21:35 10° WNW 21:24:36 44° N 21:27:37 10° ENE visible
25 May 2.5 22:58:23 10° WNW 23:00:23 35° WNW 23:00:23 35° WNW visible
26 May 1.6 21:58:20 10° WNW 22:01:26 55° N 22:02:57 26° E visible
27 May 2.0 20:58:15 10° WNW 21:01:17 46° N 21:04:19 10° E visible
27 May 1.4 22:35:00 10° WNW 22:37:38 57° W 22:37:38 57° W visible
28 May 1.1 21:34:55 10° WNW 21:38:03 74° NNE 21:40:10 19° E visible
28 May 3.9 23:11:57 10° W 23:12:20 12° W 23:12:20 12° W visible
29 May 1.6 22:11:38 10° W 22:14:37 42° SSW 22:14:52 41° SSW visible
30 May 1.1 21:11:28 10° WNW 21:14:36 73° SSW 21:17:25 12° ESE visible
30 May 3.8 22:49:12 10° WSW 22:49:35 11° WSW 22:49:35 11° WSW visible
